Dewpoint
65 65 65 65 66 66 66 65 66 66 66 66 66 65 65 65 65 66 66 66 67 68 67 66 66 67 66 66 65 66 67 67 68 68 67 67 67 67 66 65 65 66 66 66 65 66 66 64 64 66 66 67 67 67 67 66 66 66 66 66 66 65 63 62 59 61 62 65 67 63 61 61 58 62 58 59 57 56 56 60 61 61 62 64 60
64 64 65 65 65 65 66 66 66 66 67 66 66 65 65 65 65 65 65 66 66 66 66 67 67 67 66 65 65 65 66 65 67 67 67 66 66 67 67 65 65 65 66 66 66 66 66 65 64 64 65 65 65 65 65 66 66 65 63 64 64 66 68 62 64 60 61 63 65 62 62 61 59 55 56 60 58 57 58 59 60 60 58 59 62
64 65 65 65 65 66 66 66 66 67 67 66 65 64 65 65 65 65 65 66 66 66 66 66 66 65 64 66 65 64 65 65 67 67 67 66 65 66 67 67 67 67 66 66 66 64 62 63 62 63 64 63 64 68 67 67 65 64 64 64 65 68 66 66 63 61 59 61 65 59 60 60 59 58 57 58 58 59 53 60 60 60 61 61 61
64 64 65 65 66 66 66 66 67 67 66 66 65 65 65 65 65 65 64 65 65 66 66 66 65 64 64 64 64 65 66 67 67 67 66 66 65 65 66 67 67 66 66 65 64 63 62 63 63 63 62 62 62 64 67 66 67 67 66 65 68 66 68 67 66 61 61 60 61 59 60 60 57 54 57 58 55 54 55 60 60 58 55 62 59
64 64 65 66 66 66 67 67 66 66 66 66 65 65 65 65 65 64 64 64 64 66 67 66 65 63 64 64 64 64 65 65 66 66 67 67 66 66 66 66 66 65 65 65 65 63 63 63 63 64 63 62 62 62 65 65 65 66 66 64 64 65 66 67 66 66 62 60 62 61 61 58 57 56 56 55 57 57 59 56 53 53 58 56 55
63 64 64 65 66 66 66 66 66 66 66 66 65 65 65 65 64 64 63 62 63 65 66 66 66 63 62 64 64 63 64 65 64 65 65 67 67 67 66 66 66 65 65 65 64 64 63 63 64 64 63 62 62 63 64 64 65 65 64 65 65 65 66 65 65 63 63 62 61 61 60 60 58 57 57 56 57 57 58 54 54 54 56 56 56
63 63 64 65 65 65 65 66 66 66 66 66 66 65 65 65 64 63 63 63 63 65 65 65 66 65 62 62 63 64 64 65 65 66 65 65 65 65 66 66 66 65 64 64 64 63 62 63 63 63 63 63 63 63 64 64 66 66 67 66 66 66 67 65 65 65 63 62 61 60 58 57 59 58 56 59 61 57 54 54 54 55 58 56 55
64 64 63 64 64 65 65 66 66 66 66 66 65 65 65 66 64 63 63 63 64 64 64 65 66 65 63 63 64 64 63 64 65 65 65 65 65 65 65 66 66 66 65 65 64 63 62 62 63 63 63 63 63 64 65 64 66 65 67 65 66 66 65 65 64 62 63 62 60 58 58 60 55 58 59 55 56 55 56 55 54 55 55 55 55
64 63 63 63 64 65 66 66 66 66 66 65 65 65 65 65 65 63 64 65 66 65 65 65 65 64 63 65 65 66 65 65 67 66 66 65 67 65 64 66 66 64 64 64 64 63 62 63 63 63 64 64 65 65 66 65 65 65 65 65 65 63 62 63 63 64 63 61 60 59 55 55 55 57 57 54 53 53 54 56 54 55 55 53 54
65 64 62 62 63 64 65 66 65 65 65 65 65 65 65 65 65 64 64 65 66 66 65 65 65 65 64 64 65 66 66 66 65 63 63 65 66 65 66 66 64 64 65 65 64 63 63 63 63 65 65 66 65 62 60 61 66 67 66 65 64 62 62 63 62 63 62 60 58 57 56 55 57 53 54 57 55 56 56 54 52 54 54 51 53
65 63 63 62 63 64 65 64 64 65 64 65 65 65 65 65 65 65 65 66 66 66 66 65 65 65 64 64 65 66 67 66 60 53 55 58 66 66 66 65 65 65 65 64 63 64 64 63 64 65 66 66 65 60 57 57 58 60 61 63 66 65 63 63 62 62 60 59 59 56 55 56 56 56 55 55 57 54 55 54 54 55 52 49 49
65 63 64 64 65 64 65 63 63 63 64 65 65 64 65 65 66 66 66 66 67 67 66 65 65 66 66 65 65 66 67 64 51 51 53 54 60 66 66 66 65 66 65 64 64 63 63 64 65 65 65 64 64 64 61 57 54 54 53 54 55 58 61 64 62 62 60 58 57 57 55 55 54 55 55 57 52 54 55 54 55 51 52 50 50
63 61 61 62 63 64 62 62 62 63 63 63 64 65 65 65 65 66 66 66 67 67 66 66 66 66 66 66 66 66 66 58 48 50 50 51 54 63 66 65 65 65 65 64 63 63 63 64 65 66 64 66 65 64 65 62 57 56 56 55 52 49 46 47 51 63 61 60 58 56 55 56 55 54 55 55 56 54 55 53 54 54 52 51 51
61 61 61 61 63 63 62 62 62 62 61 63 64 64 64 64 65 66 66 67 66 66 66 66 66 66 66 65 65 64 64 58 50 50 49 48 48 55 65 66 66 65 65 64 63 63 63 63 64 65 65 65 65 65 65 65 63 61 61 61 60 58 50 46 46 48 56 61 59 56 58 58 57 58 57 56 55 54 56 54 54 52 52 51 52
63 61 60 60 61 62 61 60 61 61 61 61 62 63 64 65 65 65 66 66 66 66 65 65 65 65 66 66 66 65 65 54 49 49 48 48 46 53 65 66 65 65 66 65 65 65 65 64 64 65 65 65 65 65 65 64 64 63 62 61 62 59 58 57 57 58 58 58 57 57 61 61 59 57 56 57 58 57 56 56 53 53 53 54 53
61 60 59 59 60 61 61 59 59 60 60 59 60 62 63 64 64 65 66 66 66 66 66 66 65 65 66 66 65 65 68 49 48 48 48 48 46 61 64 65 65 65 65 65 66 65 65 65 64 65 65 65 64 57 60 64 64 62 61 61 61 62 62 63 56 56 63 61 57 61 57 54 54 57 59 57 57 58 57 55 55 54 54 53 51
60 60 59 59 61 63 62 62 60 60 59 61 61 61 63 64 65 65 65 65 65 65 66 66 65 65 65 65 65 66 68 50 47 48 48 46 51 63 64 63 63 63 64 64 64 64 65 64 65 65 65 64 59 52 51 57 62 63 62 61 62 61 62 60 46 43 41 42 43 43 41 40 41 40 42 47 54 54 55 51 50 52 50 48 48
61 59 60 60 62 64 63 62 62 63 62 62 63 64 64 64 64 65 64 64 64 65 66 65 65 65 65 65 66 66 67 56 46 48 47 46 57 63 63 62 61 60 61 65 65 65 65 67 65 64 64 64 53 50 49 55 62 63 63 61 61 61 61 57 53 52 41 40 40 40 41 41 42 42 41 40 44 52 53 49 52 51 50 50 47
56 59 59 60 62 62 62 62 62 63 62 61 61 62 64 63 64 64 64 63 64 65 64 64 64 63 64 65 65 65 66 60 45 47 46 46 57 63 61 59 60 60 60 64 64 64 65 65 65 63 65 62 49 47 47 55 62 63 62 62 61 60 60 58 54 53 54 54 54 54 52 48 52 54 52 42 47 55 55 53 53 51 49 49 50
53 55 62 62 62 62 63 61 61 61 61 61 61 62 62 63 62 63 64 63 63 63 62 62 63 63 64 65 66 66 67 63 50 46 46 46 52 63 61 59 59 59 59 60 64 63 64 65 62 54 54 51 47 46 47 48 60 63 63 61 60 59 60 60 56 54 54 54 54 56 56 56 55 57 57 50 53 56 55 55 54 52 52 51 51
54 55 57 62 62 62 62 61 60 60 61 61 61 62 62 62 63 63 63 63 63 64 64 63 64 64 65 66 66 66 66 65 54 44 45 46 48 56 62 60 59 58 59 59 61 63 63 64 64 56 49 49 47 47 47 46 52 62 63 61 61 64 59 60 58 58 56 55 55 56 55 55 56 56 55 56 54 54 55 55 56 55 53 51 50
54 53 52 59 62 61 62 62 61 61 61 62 61 61 62 62 62 64 63 62 63 63 63 63 63 64 65 65 65 65 66 64 58 45 45 45 47 50 61 61 59 58 59 60 60 60 62 64 62 57 48 48 47 46 46 46 47 61 64 50 47 49 59 61 60 58 58 57 55 54 54 53 52 53 53 54 56 55 54 55 55 55 54 53 52
54 53 52 52 61 61 62 61 61 61 61 61 60 60 60 60 60 62 63 63 63 63 63 64 63 64 64 64 64 65 65 64 54 50 45 45 45 46 51 58 53 67 65 62 62 64 63 62 62 57 47 47 46 45 45 45 48 57 42 42 43 45 54 59 59 59 58 58 56 55 54 53 52 51 52 52 54 56 55 53 54 53 53 53 54
55 54 54 54 60 61 61 61 60 60 62 61 60 60 60 60 60 60 62 63 64 64 64 64 64 64 64 63 64 64 65 64 54 51 48 44 44 45 46 46 47 54 61 65 64 63 62 63 62 51 47 47 45 44 45 45 51 49 44 43 43 49 58 59 58 58 56 55 55 55 54 53 53 52 52 54 54 56 55 54 54 53 53 55 54
55 55 55 55 59 61 61 63 62 61 61 61 59 60 60 60 60 60 60 61 61 62 63 64 63 63 63 63 63 63 64 64 59 51 47 45 44 44 45 45 43 45 60 60 62 60 53 53 54 47 46 46 44 43 44 44 46 49 47 45 55 56 57 58 58 58 57 55 54 55 54 54 54 54 54 54 54 56 55 56 56 55 56 55 54
56 56 54 54 58 60 61 63 63 63 61 61 60 61 60 61 61 61 60 59 59 58 59 62 63 62 62 62 62 62 62 64 62 56 51 49 46 44 44 44 46 46 49 48 41 40 41 42 43 43 44 45 50 53 54 53 45 44 45 48 55 56 56 57 57 57 57 56 55 54 54 54 54 54 55 58 56 56 55 55 55 55 54 53 52
54 56 56 55 56 58 62 60 61 60 61 61 63 63 62 62 61 58 58 58 58 59 59 58 59 60 60 62 62 62 61 63 62 58 56 54 53 51 48 49 47 45 50 53 50 51 47 50 49 48 48 46 51 52 54 50 48 49 50 53 55 56 57 57 57 57 56 56 55 55 55 55 55 54 54 55 53 54 54 53 53 53 52 52 51
53 55 56 57 58 60 60 56 57 58 62 62 60 61 62 62 61 60 58 58 59 59 59 58 59 59 58 60 61 61 60 61 62 60 58 57 56 55 53 54 53 53 55 56 57 57 55 50 51 55 54 55 56 57 57 57 54 53 54 54 54 55 57 59 58 57 58 57 57 57 55 55 54 55 54 52 51 52 52 52 52 51 51 51 51
53 54 55 55 58 58 59 59 59 60 61 60 60 58 60 59 60 60 62 61 60 60 60 60 60 61 62 61 60 60 59 59 60 57 59 53 56 57 56 56 56 56 56 53 59 57 56 56 56 56 55 55 55 57 57 57 56 55 56 55 55 55 55 56 56 56 56 57 57 57 56 56 55 55 53 52 52 51 53 51 52 50 49 49 48
53 55 55 55 54 55 58 60 60 60 60 59 53 48 40 36 42 61 53 42 47 51 54 60 62 63 62 59 55 60 58 59 52 50 50 50 50 51 51 51 51 55 52 49 56 58 58 58 58 57 56 56 56 56 56 57 56 56 56 52 55 55 55 55 55 55 56 56 56 57 56 55 55 55 53 51 52 53 52 49 52 51 49 48 47
53 54 54 55 53 54 55 58 57 60 59 58 55 53 53 49 40 38 41 42 40 40 41 43 45 52 58 56 48 40 47 48 46 45 46 48 49 49 48 48 50 50 48 55 59 60 59 58 58 57 57 57 56 57 56 56 57 56 57 56 56 55 53 55 55 54 54 55 55 55 55 55 56 55 53 52 52 52 52 50 50 51 48 47 47
55 54 54 54 54 53 54 55 56 57 58 57 55 55 54 53 50 42 39 39 40 40 41 43 44 45 48 50 54 52 43 42 43 43 43 43 44 45 46 47 48 46 48 51 57 58 58 58 56 56 55 54 53 53 54 54 55 55 55 56 56 56 54 54 55 55 54 54 54 53 54 54 55 55 54 53 50 52 53 51 50 49 49 48 47
55 56 56 56 57 56 56 55 55 55 56 58 56 56 55 54 53 51 48 41 40 40 41 41 42 43 43 45 48 49 46 42 42 43 43 42 42 43 42 43 45 44 47 55 57 57 56 56 55 55 56 56 56 59 58 57 57 56 54 52 52 53 54 55 53 56 54 54 54 54 54 54 54 55 51 52 52 51 52 50 50 48 47 47 48
56 56 56 57 57 57 58 59 60 58 55 57 56 56 56 56 54 53 53 53 52 47 43 41 41 41 41 42 42 42 42 42 42 42 42 43 43 44 45 44 44 46 52 58 57 56 57 57 56 56 57 57 57 57 57 57 57 57 55 53 53 54 54 56 56 54 53 53 53 53 53 54 53 56 55 54 53 52 52 51 51 50 48 46 47
57 53 49 51 57 58 59 60 60 59 59 59 57 56 57 56 55 54 54 54 54 54 53 49 42 40 43 42 41 41 41 41 42 42 43 43 44 44 48 56 56 55 54 55 57 57 57 57 57 57 57 57 58 57 58 57 56 55 53 51 52 53 53 54 54 54 53 54 53 53 52 53 54 54 55 54 53 52 51 51 51 50 49 47 47
57 57 57 55 57 58 59 59 59 59 58 58 58 58 55 54 55 55 55 55 54 53 52 51 47 41 40 40 40 40 40 41 42 42 43 43 45 49 55 55 55 55 54 56 56 56 56 56 56 57 58 58 57 57 56 52 52 52 52 53 52 53 53 53 54 54 55 55 53 53 52 53 53 52 54 54 54 53 53 52 50 49 49 48 47
58 58 58 58 58 59 59 59 58 57 51 54 55 55 55 55 54 54 54 54 54 53 52 51 51 50 46 45 43 40 40 40 41 41 42 43 43 51 56 56 55 55 55 56 56 55 54 54 53 53 53 53 52 52 53 53 53 53 50 53 54 53 54 54 55 52 56 55 54 54 54 53 54 54 53 52 50 52 52 51 51 48 45 46 42
58 58 58 57 56 55 55 54 52 46 53 55 55 55 55 54 54 53 54 54 53 52 52 52 50 52 51 49 51 48 43 41 43 45 45 46 47 54 56 55 55 54 54 54 54 53 51 51 52 51 50 51 52 52 52 54 53 52 53 53 52 55 50 53 53 55 55 55 55 55 53 54 53 53 49 51 50 51 51 47 50 50 49 44 44
55 45 44 45 47 55 55 53 53 53 53 53 53 52 52 53 54 54 54 53 53 52 51 52 52 52 52 51 49 48 47 50 50 50 50 50 53 54 54 53 53 54 54 55 54 52 51 50 47 49 50 50 49 52 51 52 52 51 52 51 52 52 53 53 53 53 52 53 53 54 53 53 53 52 51 52 50 51 51 51 51 52 53 51 50
54 54 48 45 50 51 50 50 52 52 51 51 52 52 53 53 53 53 53 53 52 51 52 50 50 50 50 49 48 49 49 50 50 50 50 50 50 51 51 50 50 50 50 51 52 52 52 50 49 51 53 51 49 49 51 52 53 51 51 51 51 51 52 52 51 52 52 53 52 53 52 53 53 52 52 51 51 52 51 50 48 50 51 51 51
55 53 47 46 47 52 50 51 51 52 52 51 49 50 50 51 52 52 52 50 49 50 51 52 51 50 49 46 45 46 49 49 50 49 49 49 49 49 50 50 49 49 51 49 49 49 51 51 50 50 49 49 48 49 50 50 50 50 50 49 51 50 51 53 52 51 52 50 51 50 50 55 48 49 47 48 48 51 49 49 48 50 50 49 51
55 54 53 51 48 49 49 49 49 48 48 49 51 50 47 47 48 48 49 49 50 51 51 49 49 48 41 42 42 41 47 48 50 49 49 50 50 48 48 49 47 48 47 47 48 49 48 48 49 48 47 48 48 48 48 49 49 49 49 49 50 50 49 50 51 51 52 50 49 50 49 47 45 46 48 47 47 48 49 50 51 50 51 51 49
51 51 53 51 51 47 45 47 46 48 45 45 45 42 44 47 49 48 48 47 47 47 46 46 47 46 43 40 40 38 46 46 44 47 46 46 47 46 46 48 50 49 49 50 50 50 49 49 49 48 48 48 49 49 50 49 49 49 49 50 49 50 50 49 49 48 49 49 49 48 51 48 45 44 46 45 48 47 48 50 49 49 48 50 48
48 45 45 46 46 46 46 46 44 45 44 42 43 43 44 45 46 46 44 45 45 45 43 42 42 42 44 46 47 47 46 46 43 43 44 44 46 45 46 47 48 49 50 50 50 49 49 50 50 50 51 51 51 52 49 50 50 49 50 50 47 46 49 48 48 50 49 47 47 45 46 45 43 44 43 42 45 45 44 46 49 48 46 49 50
48 46 48 47 47 47 45 44 43 43 41 40 41 42 42 44 43 43 44 46 46 46 43 40 40 40 41 43 44 45 44 45 41 42 44 44 43 45 46 47 48 48 47 47 48 48 48 47 48 49 49 49 50 50 50 50 51 50 50 49 48 49 50 51 51 52 51 51 48 47 45 44 46 46 45 45 43 45 42 43 44 42 42 42 45
47 46 45 42 44 43 43 42 40 42 41 42 41 39 38 38 37 36 35 37 44 45 44 44 42 43 43 45 44 44 45 42 43 42 42 42 43 45 47 46 47 47 47 47 48 50 49 49 49 49 49 50 50 50 49 50 49 50 50 48 47 46 46 48 50 49 48 48 49 48 47 45 49 46 44 45 44 44 47 47 46 43 42 41 42
47 46 46 44 43 41 40 40 41 41 41 40 37 36 34 32 32 32 31 32 36 35 38 41 42 42 43 44 46 45 41 42 42 42 44 45 46 47 47 48 49 49 47 48 50 48 49 49 49 50 50 50 50 51 50 49 48 46 42 41 40 39 39 42 42 40 41 43 45 48 48 46 45 45 45 46 43 44 42 42 43 43 44 41 41
46 44 43 41 40 40 41 42 43 39 41 39 37 36 35 34 34 35 35 36 41 36 35 38 39 39 39 40 41 41 41 42 42 42 42 46 47 48 48 48 47 46 47 47 48 47 47 48 49 49 49 49 49 48 49 48 45 42 39 36 35 35 35 35 36 36 36 39 41 42 43 45 45 46 46 47 47 45 43 43 42 41 41 40 40
43 43 41 39 39 40 41 42 42 46 43 39 37 37 36 35 35 34 34 38 40 37 38 37 37 38 39 39 39 39 40 41 42 44 44 45 47 47 46 46 46 46 45 45 45 46 47 47 46 46 46 46 46 46 46 44 42 40 37 35 33 32 33 33 33 33 33 37 37 38 39 40 42 43 44 45 45 46 45 46 45 43 42 40 40
40 40 41 39 42 41 38 37 37 38 38 36 36 36 37 37 38 38 39 37 37 38 38 38 38 39 40 39 38 39 40 40 41 43 43 43 43 44 44 45 45 44 44 44 45 45 45 45 45 44 44 44 44 44 43 40 39 37 35 33 32 32 32 32 32 32 32 33 35 36 37 38 39 40 42 43 45 45 45 43 43 42 42 43 42
40 41 40 39 38 38 39 40 41 40 39 38 40 39 37 37 37 38 38 38 38 38 39 39 40 40 40 40 40 41 40 41 41 41 41 42 42 43 43 43 42 42 43 45 43 42 43 43 42 41 42 41 42 43 41 37 37 34 32 32 31 31 31 31 32 31 31 31 33 35 35 36 37 38 39 41 42 43 42 41 41 42 41 41 41